LU8FCJ-5 Weather Reports


Display with metric or nautical units.
time (UTC)temp
F
wind
direction
speed
MPH
gust
MPH
rain 1hr
in
rain 24hr
in
rain mn
in
humidity
%
barometer
mb
20260505153231 71 0 4.0 7.0 0.00 0.00 0.00 86 1012.4
20260505152722 71 338 3.0 7.0 0.00 0.00 0.00 87 1012.7
20260505152211 70 338 4.0 7.0 0.00 0.00 0.00 87 1012.7
20260505151700 70 338 4.0 7.0 0.00 0.00 0.00 87 1012.7
20260505151151 70 338 4.0 7.0 0.00 0.00 0.00 87 1012.7
20260505150653 70 0 4.0 9.0 0.00 0.00 0.00 87 1012.5
20260505150130 70 0 4.0 11.0 0.00 0.00 0.00 87 1012.3
20260505140438 69 0 5.0 9.0 0.00 0.00 0.00 89 1011.8
20260505130237 65 338 2.0 11.0 0.00 0.00 0.00 93 1011.7
20260505124706 64 0 6.0 11.0 0.00 0.00 0.00 94 1011.8
20260505124156 63 0 5.0 11.0 0.00 0.00 0.00 94 1011.8
20260505123646 63 338 8.0 11.0 0.00 0.00 0.00 94 1011.9
20260505123136 63 0 3.0 9.0 0.00 0.00 0.00 94 1011.5
20260505122626 62 0 7.0 8.0 0.00 0.00 0.00 94 1012.0
20260505122117 62 23 2.0 4.0 0.00 0.00 0.00 95 1011.9
20260505121605 62 23 3.0 6.0 0.00 0.00 0.00 95 1011.8
20260505121055 61 23 3.0 6.0 0.00 0.00 0.00 95 1011.8
20260505120545 61 0 3.0 4.0 0.00 0.00 0.00 95 1011.8
20260505120050 60 23 2.0 4.0 0.00 0.00 0.00 95 1012.0
20260505115525 59 45 2.0 2.0 0.00 0.00 0.00 95 1011.6
20260505115015 59 45 2.0 2.0 0.00 0.00 0.00 95 1011.7
20260505114518 58 68 0.0 2.0 0.00 0.00 0.00 95 1011.7
20260505113955 58 90 0.0 2.0 0.00 0.00 0.00 95 1011.7
20260505113445 57 90 0.0 2.0 0.00 0.00 0.00 95 1011.4
20260505112934 57 68 0.0 2.0 0.00 0.00 0.00 95 1011.7
20260505112424 57 68 0.0 2.0 0.00 0.00 0.00 95 1011.6
20260505111914 57 68 0.0 2.0 0.00 0.00 0.00 95 1011.6
20260505111404 57 68 0.0 2.0 0.00 0.00 0.00 95 1011.6
20260505110853 57 45 0.0 2.0 0.00 0.00 0.00 95 1011.4
20260505110356 56 45 0.0 2.0 0.00 0.00 0.00 95 1011.5
20260505102222 53 23 0.0 2.0 0.00 0.00 0.00 95 1011.5
20260505101712 53 0 0.0 2.0 0.00 0.00 0.00 95 1011.3
20260505101202 53 0 0.0 2.0 0.00 0.00 0.00 95 1011.3
20260505100705 54 23 0.0 2.0 0.00 0.00 0.00 95 1011.1
20260505100157 54 45 0.0 0.0 0.00 0.00 0.00 94 1011.1
20260505095631 54 45 0.0 0.0 0.00 0.00 0.00 94 1011.2
20260505095117 53 45 0.0 0.0 0.00 0.00 0.00 94 1011.1
20260505094611 54 23 0.0 2.0 0.00 0.00 0.00 94 1011.1
20260505094101 54 23 0.0 2.0 0.00 0.00 0.00 94 1011.0
20260505093551 54 23 0.0 2.0 0.00 0.00 0.00 94 1011.2
20260505093041 54 23 0.0 2.0 0.00 0.00 0.00 94 1011.1
20260505092531 55 45 1.0 2.0 0.00 0.00 0.00 94 1011.1
20260505092028 55 68 0.0 0.0 0.00 0.00 0.00 94 1010.9
20260505091515 55 68 0.0 0.0 0.00 0.00 0.00 93 1010.8
20260505091001 55 68 0.0 0.0 0.00 0.00 0.00 93 1010.9
20260505090450 55 68 0.0 0.0 0.00 0.00 0.00 93 1011.1
20260505085940 55 68 0.0 0.0 0.00 0.00 0.00 93 1011.0
20260505085429 55 68 0.0 2.0 0.00 0.00 0.00 93 1011.0
20260505084922 56 68 0.0 2.0 0.00 0.00 0.00 93 1010.8
20260505084409 56 68 0.0 2.0 0.00 0.00 0.00 93 1010.7
20260505083900 56 68 0.0 2.0 0.00 0.00 0.00 93 1010.7
20260505083349 55 45 0.0 2.0 0.00 0.00 0.00 93 1010.6
20260505082839 55 45 0.0 2.0 0.00 0.00 0.00 93 1010.4
20260505082328 55 45 0.0 2.0 0.00 0.00 0.00 93 1010.3
20260505081819 54 45 1.0 2.0 0.00 0.00 0.00 92 1010.2
20260505081309 55 23 1.0 2.0 0.00 0.00 0.00 92 1010.4
20260505080759 55 23 1.0 4.0 0.00 0.00 0.00 92 1010.2
20260505080248 55 23 2.0 4.0 0.00 0.00 0.00 92 1010.0
20260505075738 55 23 2.0 2.0 0.00 0.00 0.00 92 1010.3
20260505075228 55 23 2.0 2.0 0.00 0.00 0.00 92 1010.3
20260505074731 55 23 2.0 2.0 0.00 0.00 0.00 92 1010.1
20260505074208 55 23 2.0 2.0 0.00 0.00 0.00 91 1010.4
20260505073657 55 23 2.0 2.0 0.00 0.00 0.00 91 1010.2
20260505073148 55 0 2.0 2.0 0.00 0.00 0.00 91 1010.0
20260505072638 54 0 2.0 2.0 0.00 0.00 0.00 90 1010.4
20260505072127 54 23 1.0 2.0 0.00 0.00 0.00 90 1010.1
20260505071620 55 0 2.0 4.0 0.00 0.00 0.00 90 1010.0
20260505071107 55 23 2.0 4.0 0.00 0.00 0.00 89 1010.3
20260505070557 56 0 2.0 4.0 0.00 0.00 0.00 89 1010.2
20260505065537 56 23 2.0 4.0 0.00 0.00 0.00 89 1010.4
20260505065250 56 23 3.0 4.0 0.00 0.00 0.00 88 1010.2
20260505064538 56 23 2.0 4.0 0.00 0.00 0.00 88 1010.3
20260505064005 57 45 3.0 4.0 0.00 0.00 0.00 87 1010.3
20260505063456 57 23 3.0 4.0 0.00 0.00 0.00 86 1010.3
20260505062945 58 23 2.0 4.0 0.00 0.00 0.00 86 1010.5
20260505062436 58 23 2.0 4.0 0.00 0.00 0.00 86 1010.7
20260505061927 58 23 2.0 4.0 0.00 0.00 0.00 87 1010.5
20260505060905 57 23 2.0 4.0 0.00 0.00 0.00 87 1010.5
20260505060355 57 23 2.0 4.0 0.00 0.00 0.00 88 1010.7
20260505055846 56 45 2.0 4.0 0.00 0.00 0.00 88 1010.6
20260505055334 56 45 2.0 2.0 0.00 0.00 0.00 88 1010.5
20260505054824 56 23 2.0 2.0 0.00 0.00 0.00 88 1010.7
20260505054315 56 23 2.0 2.0 0.00 0.00 0.00 87 1010.9
20260505053804 56 23 2.0 2.0 0.00 0.00 0.00 87 1010.8
20260505053254 56 23 1.0 4.0 0.00 0.00 0.00 86 1010.6
20260505052744 57 0 1.0 4.0 0.00 0.00 0.00 85 1010.9
20260505052234 57 23 1.0 4.0 0.00 0.00 0.00 85 1010.9
20260505051724 56 45 0.0 2.0 0.00 0.00 0.00 86 1011.0
20260505051214 56 45 0.0 4.0 0.00 0.00 0.00 86 1010.7
20260505050716 56 45 1.0 4.0 0.00 0.00 0.00 85 1010.6
20260505050154 56 45 2.0 4.0 0.00 0.00 0.00 85 1010.4
20260505041532 57 45 4.0 4.0 0.00 0.00 0.00 83 1010.7
20260505041013 56 23 2.0 6.0 0.00 0.00 0.00 83 1010.8
20260505040503 56 45 3.0 6.0 0.00 0.00 0.00 82 1010.8
20260505035951 56 45 4.0 6.0 0.00 0.00 0.00 82 1010.6
20260505035442 56 45 3.0 4.0 0.00 0.00 0.00 83 1010.8
20260505034932 56 23 4.0 6.0 0.00 0.00 0.00 82 1010.6
20260505034427 56 45 3.0 6.0 0.00 0.00 0.00 83 1010.8
20260505033912 56 45 3.0 4.0 0.00 0.00 0.00 84 1010.7
20260505033401 54 45 2.0 4.0 0.00 0.00 0.00 87 1010.8
20260505032851 54 23 2.0 4.0 0.00 0.00 0.00 86 1010.6
20260505032342 54 23 2.0 4.0 0.00 0.00 0.00 86 1010.9
20260505031831 54 0 2.0 2.0 0.00 0.00 0.00 86 1010.9
20260505031321 54 0 1.0 2.0 0.00 0.00 0.00 85 1010.9
20260505030810 54 23 2.0 2.0 0.00 0.00 0.00 85 1010.9
20260505030300 54 0 2.0 2.0 0.00 0.00 0.00 84 1010.8
20260505025751 55 0 1.0 4.0 0.00 0.00 0.00 83 1010.8
20260505025240 55 0 1.0 4.0 0.00 0.00 0.00 83 1010.8
20260505024730 56 45 2.0 4.0 0.00 0.00 0.00 82 1010.7
20260505024226 56 45 2.0 4.0 0.00 0.00 0.00 81 1010.5
20260505023712 56 45 3.0 4.0 0.00 0.00 0.00 81 1010.6
20260505023200 55 23 2.0 4.0 0.00 0.00 0.00 82 1010.5
20260505022650 55 23 3.0 4.0 0.00 0.00 0.00 83 1010.5
20260505022139 54 45 1.0 2.0 0.00 0.00 0.00 83 1010.4
20260505021638 55 45 1.0 2.0 0.00 0.00 0.00 83 1010.7
20260505021119 55 45 2.0 2.0 0.00 0.00 0.00 83 1010.8
20260505020612 55 68 2.0 6.0 0.00 0.00 0.00 83 1010.6
20260505020109 56 90 2.0 6.0 0.00 0.00 0.00 81 1010.5
20260505015553 57 45 4.0 4.0 0.00 0.00 0.00 79 1010.6
20260505015040 57 45 3.0 4.0 0.00 0.00 0.00 79 1010.5
20260505014530 56 23 2.0 6.0 0.00 0.00 0.00 80 1010.3
20260505014026 56 45 2.0 6.0 0.00 0.00 0.00 80 1010.4
20260505013508 56 23 4.0 6.0 0.00 0.00 0.00 81 1010.3
20260505013000 55 23 3.0 4.0 0.00 0.00 0.00 82 1010.2
20260505012509 54 0 2.0 2.0 0.00 0.00 0.00 82 1010.0
20260505011945 55 23 0.0 2.0 0.00 0.00 0.00 82 1010.2
20260505011428 55 45 1.0 2.0 0.00 0.00 0.00 82 1010.4
20260505010921 55 45 1.0 2.0 0.00 0.00 0.00 82 1010.3
20260505010408 55 45 1.0 2.0 0.00 0.00 0.00 82 1010.2
20260505005859 55 68 0.0 2.0 0.00 0.00 0.00 82 1010.2
20260505005347 55 45 0.0 2.0 0.00 0.00 0.00 82 1010.1
20260505004845 55 23 0.0 2.0 0.00 0.00 0.00 81 1010.1
20260505004328 55 23 0.0 2.0 0.00 0.00 0.00 80 1010.2
20260505003821 55 23 1.0 4.0 0.00 0.00 0.00 79 1009.9
20260505003306 56 23 1.0 4.0 0.00 0.00 0.00 80 1009.9
20260505002800 56 45 2.0 4.0 0.00 0.00 0.00 80 1010.0
20260505002246 56 45 2.0 4.0 0.00 0.00 0.00 81 1010.0
20260505001740 56 45 2.0 2.0 0.00 0.00 0.00 81 1009.8
20260505001226 56 23 2.0 2.0 0.00 0.00 0.00 81 1009.7
20260505000720 55 23 0.0 2.0 0.00 0.00 0.00 79 1009.6
20260505000205 55 23 0.0 4.0 0.00 0.00 0.00 78 1009.5
20260504235700 56 23 1.0 4.0 0.00 0.00 0.00 79 1009.3
20260504235145 56 23 2.0 2.0 0.00 0.00 0.00 79 1009.3
20260504234642 56 23 0.0 2.0 0.00 0.00 0.00 80 1009.4
20260504234125 56 23 1.0 2.0 0.00 0.00 0.00 80 1009.3
20260504233614 56 23 0.0 2.0 0.00 0.00 0.00 79 1009.3
20260504233104 56 23 1.0 2.0 0.00 0.00 0.00 78 1009.2
20260504232555 57 23 1.0 2.0 0.00 0.00 0.00 78 1009.2
20260504232044 57 23 1.0 4.0 0.00 0.00 0.00 78 1009.2
20260504231534 57 23 0.0 4.0 0.00 0.00 0.00 78 1009.2
20260504231028 58 45 2.0 4.0 0.00 0.00 0.00 77 1009.1
20260504230513 58 45 1.0 2.0 0.00 0.00 0.00 76 1009.2
20260504230004 58 45 1.0 2.0 0.00 0.00 0.00 76 1009.0
20260504225455 58 68 0.0 2.0 0.00 0.00 0.00 77 1008.8
20260504224944 58 45 0.0 2.0 0.00 0.00 0.00 77 1008.8
20260504224434 58 45 1.0 2.0 0.00 0.00 0.00 77 1008.8
20260504223923 58 23 0.0 2.0 0.00 0.00 0.00 77 1008.6
20260504223413 58 23 0.0 2.0 0.00 0.00 0.00 77 1008.7
20260504222904 59 45 1.0 2.0 0.00 0.00 0.00 75 1008.9
20260504222352 59 45 0.0 2.0 0.00 0.00 0.00 74 1008.6
20260504221842 60 45 0.0 2.0 0.00 0.00 0.00 74 1008.7
20260504221333 60 90 0.0 0.0 0.00 0.00 0.00 74 1008.7
20260504220822 60 45 0.0 2.0 0.00 0.00 0.00 72 1008.5
20260504220311 60 68 0.0 2.0 0.00 0.00 0.00 71 1008.3
20260504215802 61 45 0.0 2.0 0.00 0.00 0.00 69 1008.3
20260504215252 61 45 0.0 2.0 0.00 0.00 0.00 69 1008.3
20260504214741 62 23 0.0 0.0 0.00 0.00 0.00 70 1008.4
20260504214233 62 45 0.0 0.0 0.00 0.00 0.00 70 1008.4
20260504213722 62 45 0.0 0.0 0.00 0.00 0.00 69 1008.2
20260504213210 63 45 0.0 0.0 0.00 0.00 0.00 68 1008.2
20260504212701 63 23 0.0 2.0 0.00 0.00 0.00 66 1008.1
20260504212150 63 45 0.0 2.0 0.00 0.00 0.00 66 1008.1
20260504211641 64 45 1.0 2.0 0.00 0.00 0.00 65 1007.9
20260504211143 65 45 1.0 2.0 0.00 0.00 0.00 63 1007.9
20260504210623 66 45 2.0 4.0 0.00 0.00 0.00 61 1007.9
20260504210111 67 45 2.0 4.0 0.00 0.00 0.00 59 1008.0
20260504205601 68 45 2.0 4.0 0.00 0.00 0.00 58 1008.0
20260504205051 69 45 3.0 6.0 0.00 0.00 0.00 56 1008.1
20260504204540 69 45 2.0 7.0 0.00 0.00 0.00 55 1008.1
20260504204034 70 45 3.0 7.0 0.00 0.00 0.00 54 1008.2
20260504203522 70 45 4.0 8.0 0.00 0.00 0.00 53 1008.2
20260504203010 71 45 4.0 8.0 0.00 0.00 0.00 51 1008.3
20260504202459 73 45 4.0 8.0 0.00 0.00 0.00 48 1008.4
20260504201950 73 0 4.0 8.0 0.00 0.00 0.00 47 1008.6
20260504201439 73 23 4.0 9.0 0.00 0.00 0.00 47 1008.3
20260504200929 74 0 5.0 9.0 0.00 0.00 0.00 47 1008.3
20260504200419 74 23 4.0 8.0 0.00 0.00 0.00 45 1008.4
20260504195909 74 0 5.0 8.0 0.00 0.00 0.00 46 1008.5
20260504195359 74 23 4.0 8.0 0.00 0.00 0.00 45 1008.0
20260504194849 74 45 3.0 9.0 0.00 0.00 0.00 44 1008.4
20260504194338 74 23 4.0 9.0 0.00 0.00 0.00 45 1008.4
20260504193828 75 0 4.0 11.0 0.00 0.00 0.00 44 1008.3
20260504193319 74 0 6.0 11.0 0.00 0.00 0.00 44 1008.6
20260504192258 75 0 2.0 11.0 0.00 0.00 0.00 44 1008.9
20260504191747 75 0 4.0 9.0 0.00 0.00 0.00 44 1008.7
20260504191238 75 315 7.0 9.0 0.00 0.00 0.00 43 1008.7
20260504190727 76 338 6.0 11.0 0.00 0.00 0.00 42 1008.8
20260504190218 75 338 4.0 11.0 0.00 0.00 0.00 42 1008.7
20260504185707 76 0 5.0 11.0 0.00 0.00 0.00 43 1008.6
20260504185158 75 23 4.0 8.0 0.00 0.00 0.00 42 1008.5
20260504184646 75 23 4.0 16.0 0.00 0.00 0.00 42 1008.8
20260504184137 75 23 6.0 16.0 0.00 0.00 0.00 42 1008.6
20260504183627 75 315 8.0 11.0 0.00 0.00 0.00 40 1008.6
20260504183116 75 315 4.0 14.0 0.00 0.00 0.00 41 1008.4
20260504182606 75 338 5.0 14.0 0.00 0.00 0.00 41 1008.8
20260504182055 74 315 6.0 9.0 0.00 0.00 0.00 41 1008.9
20260504181547 75 315 6.0 11.0 0.00 0.00 0.00 41 1008.9
20260504181036 75 293 5.0 11.0 0.00 0.00 0.00 42 1008.8
20260504180526 75 0 2.0 11.0 0.00 0.00 0.00 42 1008.8
20260504180020 74 293 4.0 11.0 0.00 0.00 0.00 42 1009.0
20260504175505 74 338 4.0 11.0 0.00 0.00 0.00 43 1009.1
20260504174956 74 0 2.0 11.0 0.00 0.00 0.00 43 1009.1
20260504174446 73 315 6.0 13.0 0.00 0.00 0.00 43 1009.1
20260504173935 74 315 8.0 13.0 0.00 0.00 0.00 42 1009.2
20260504173428 73 338 4.0 11.0 0.00 0.00 0.00 43 1009.3
20260504172916 74 315 8.0 11.0 0.00 0.00 0.00 42 1009.5
20260504172405 74 315 5.0 11.0 0.00 0.00 0.00 42 1009.8
20260504171854 73 293 4.0 11.0 0.00 0.00 0.00 43 1010.0
20260504171344 74 315 6.0 11.0 0.00 0.00 0.00 42 1009.8
20260504170834 73 0 4.0 11.0 0.00 0.00 0.00 43 1009.7
20260504170324 73 293 6.0 11.0 0.00 0.00 0.00 44 1009.6
20260504160123 71 338 3.0 11.0 0.00 0.00 0.00 48 1010.9